When you browse on this site, cookies collect data to enhance your experience and personalize the content and advertising you see.
Visit our Privacy Policy to learn more. By continuing to use the site, you agree to this use of cookies and data.

Stündliche Wetter Semmering

Heute, 5 August, Mittwoch

Zeit Temperatur Niederschläge Wind Luftdruck Luftfeuchtigkeit
00:00 +8°C° 0 mm 3 m/S 664 mmHg 84%
01:00 +7°C° 0 mm 4 m/S 664 mmHg 82%
02:00 +8°C° 0 mm 3 m/S 664 mmHg 83%
03:00 +8°C° 0 mm 3 m/S 664 mmHg 83%
04:00 +9°C° 0 mm 3 m/S 664 mmHg 84%
05:00 +9°C° 0 mm 3 m/S 664 mmHg 82%
06:00 +9°C° 0 mm 3 m/S 664 mmHg 81%
07:00 +10°C° 0 mm 3 m/S 665 mmHg 79%
08:00 +10°C° 0 mm 3 m/S 665 mmHg 80%
09:00 +10°C° 0 mm 3 m/S 665 mmHg 80%
10:00 +10°C° 0 mm 3 m/S 665 mmHg 81%
11:00 +9°C° 0.3 mm 3 m/S 665 mmHg 84%
12:00 +9°C° 0.3 mm 3 m/S 665 mmHg 88%
13:00 +9°C° 0.3 mm 2 m/S 665 mmHg 92%
14:00 +9°C° 0.4 mm 2 m/S 665 mmHg 92%
15:00 +9°C° 0.4 mm 2 m/S 665 mmHg 93%
16:00 +9°C° 0.4 mm 2 m/S 664 mmHg 94%
17:00 +9°C° 0.1 mm 2 m/S 664 mmHg 93%
18:00 +9°C° 0.1 mm 2 m/S 665 mmHg 93%
19:00 +10°C° 0.1 mm 2 m/S 665 mmHg 93%
20:00 +10°C° 0 mm 2 m/S 665 mmHg 93%
21:00 +10°C° 0 mm 2 m/S 665 mmHg 93%
22:00 +10°C° 0 mm 2 m/S 665 mmHg 94%
23:00 +9°C° 0 mm 2 m/S 665 mmHg 94%

Morgen, 6 August, Donnerstag

Zeit Temperatur Niederschläge Wind Luftdruck Luftfeuchtigkeit
00:00 +9°C° 0 mm 2 m/S 665 mmHg 94%
01:00 +9°C° 0 mm 2 m/S 665 mmHg 94%
02:00 +9°C° 0 mm 2 m/S 665 mmHg 93%
03:00 +9°C° 0 mm 2 m/S 665 mmHg 93%
04:00 +9°C° 0 mm 2 m/S 665 mmHg 92%
05:00 +10°C° 0 mm 2 m/S 666 mmHg 91%
06:00 +12°C° 0 mm 1 m/S 666 mmHg 90%
07:00 +13°C° 0 mm 1 m/S 666 mmHg 89%
08:00 +14°C° 0 mm 1 m/S 667 mmHg 85%
09:00 +15°C° 0 mm 1 m/S 667 mmHg 80%
10:00 +18°C° 0 mm 1 m/S 668 mmHg 76%
11:00 +19°C° 0.1 mm 1 m/S 668 mmHg 72%
12:00 +20°C° 0.1 mm 2 m/S 668 mmHg 68%
13:00 +21°C° 0.1 mm 2 m/S 669 mmHg 64%
14:00 +21°C° 0.3 mm 2 m/S 668 mmHg 65%
15:00 +21°C° 0.3 mm 2 m/S 668 mmHg 67%
16:00 +20°C° 0.3 mm 2 m/S 668 mmHg 69%
17:00 +19°C° 0.1 mm 2 m/S 668 mmHg 75%
18:00 +19°C° 0.1 mm 1 m/S 668 mmHg 81%
19:00 +16°C° 0.1 mm 1 m/S 667 mmHg 87%
20:00 +15°C° 0.1 mm 1 m/S 668 mmHg 88%
21:00 +15°C° 0.1 mm 1 m/S 668 mmHg 90%
22:00 +14°C° 0.1 mm 1 m/S 668 mmHg 92%
23:00 +14°C° 0 mm 1 m/S 668 mmHg 91%

übermorgen, 7 August, Freitag

Zeit Temperatur Niederschläge Wind Luftdruck Luftfeuchtigkeit
00:00 +13°C° 0 mm 1 m/S 668 mmHg 91%
01:00 +13°C° 0 mm 1 m/S 668 mmHg 90%
02:00 +13°C° 0 mm 1 m/S 668 mmHg 90%
03:00 +13°C° 0 mm 1 m/S 667 mmHg 89%
04:00 +12°C° 0 mm 1 m/S 667 mmHg 88%
05:00 +14°C° 0 mm 1 m/S 668 mmHg 86%
06:00 +15°C° 0 mm 1 m/S 669 mmHg 83%
07:00 +18°C° 0 mm 1 m/S 669 mmHg 81%
08:00 +20°C° 0 mm 1 m/S 670 mmHg 71%
09:00 +21°C° 0 mm 1 m/S 670 mmHg 62%
10:00 +23°C° 0 mm 2 m/S 671 mmHg 53%
11:00 +24°C° 0 mm 2 m/S 671 mmHg 51%
12:00 +24°C° 0 mm 2 m/S 671 mmHg 49%
13:00 +25°C° 0 mm 3 m/S 670 mmHg 47%
14:00 +25°C° 0 mm 3 m/S 670 mmHg 48%
15:00 +24°C° 0 mm 2 m/S 670 mmHg 49%
16:00 +24°C° 0 mm 2 m/S 670 mmHg 50%
17:00 +21°C° 0 mm 2 m/S 669 mmHg 58%
18:00 +20°C° 0 mm 1 m/S 669 mmHg 65%
19:00 +18°C° 0 mm 1 m/S 668 mmHg 73%
20:00 +18°C° 0 mm 1 m/S 668 mmHg 73%
21:00 +16°C° 0 mm 1 m/S 668 mmHg 73%
22:00 +15°C° 0 mm 1 m/S 668 mmHg 73%
23:00 +15°C° 0 mm 1 m/S 668 mmHg 73%

8 August, Samstag

Zeit Temperatur Niederschläge Wind Luftdruck Luftfeuchtigkeit
00:00 +15°C° 0 mm 1 m/S 668 mmHg 73%
01:00 +15°C° 0 mm 1 m/S 668 mmHg 73%
02:00 +14°C° 0 mm 1 m/S 668 mmHg 73%
03:00 +14°C° 0 mm 1 m/S 668 mmHg 73%
04:00 +14°C° 0 mm 1 m/S 667 mmHg 73%
05:00 +16°C° 0 mm 1 m/S 668 mmHg 72%
06:00 +18°C° 0 mm 1 m/S 668 mmHg 71%
07:00 +19°C° 0 mm 1 m/S 669 mmHg 70%
08:00 +21°C° 0 mm 1 m/S 669 mmHg 63%
09:00 +23°C° 0 mm 1 m/S 670 mmHg 56%
10:00 +24°C° 0 mm 1 m/S 670 mmHg 49%
11:00 +25°C° 0 mm 1 m/S 670 mmHg 48%
12:00 +25°C° 0 mm 2 m/S 670 mmHg 46%
13:00 +26°C° 0 mm 2 m/S 670 mmHg 45%
14:00 +25°C° 0 mm 2 m/S 669 mmHg 46%
15:00 +25°C° 0 mm 1 m/S 669 mmHg 48%
16:00 +25°C° 0 mm 1 m/S 669 mmHg 49%
17:00 +23°C° 0.1 mm 1 m/S 668 mmHg 58%
18:00 +21°C° 0.1 mm 1 m/S 668 mmHg 66%
19:00 +17°C° 0.1 mm 0 m/S 667 mmHg 75%
20:00 +16°C° 0 mm 0 m/S 667 mmHg 76%
21:00 +18°C° 0 mm 1 m/S 667 mmHg 78%
22:00 +16°C° 0 mm 1 m/S 667 mmHg 79%
23:00 +16°C° 0 mm 1 m/S 667 mmHg 80%

9 August, Sonntag

Zeit Temperatur Niederschläge Wind Luftdruck Luftfeuchtigkeit
00:00 +15°C° 0 mm 1 m/S 667 mmHg 80%
01:00 +15°C° 0 mm 1 m/S 667 mmHg 81%
02:00 +15°C° 0 mm 1 m/S 667 mmHg 82%
03:00 +15°C° 0 mm 1 m/S 666 mmHg 83%
04:00 +15°C° 0 mm 1 m/S 666 mmHg 84%
05:00 +16°C° 0 mm 1 m/S 667 mmHg 81%
06:00 +18°C° 0 mm 1 m/S 667 mmHg 78%
07:00 +20°C° 0 mm 1 m/S 668 mmHg 75%
08:00 +21°C° 0 mm 1 m/S 668 mmHg 67%
09:00 +23°C° 0 mm 1 m/S 668 mmHg 60%
10:00 +25°C° 0 mm 1 m/S 669 mmHg 52%
11:00 +25°C° 0 mm 1 m/S 669 mmHg 51%
12:00 +25°C° 0 mm 1 m/S 668 mmHg 50%
13:00 +26°C° 0 mm 2 m/S 668 mmHg 49%
14:00 +25°C° 0.2 mm 1 m/S 668 mmHg 52%
15:00 +25°C° 0.2 mm 1 m/S 668 mmHg 55%
16:00 +24°C° 0.2 mm 1 m/S 667 mmHg 58%
17:00 +22°C° 0.1 mm 1 m/S 667 mmHg 64%
18:00 +21°C° 0.1 mm 1 m/S 666 mmHg 70%
19:00 +17°C° 0.1 mm 0 m/S 666 mmHg 76%
20:00 +18°C° 0 mm 1 m/S 666 mmHg 77%
21:00 +16°C° 0 mm 1 m/S 666 mmHg 78%
22:00 +16°C° 0 mm 1 m/S 666 mmHg 79%
23:00 +15°C° 0 mm 1 m/S 666 mmHg 80%

10 August, Montag

Zeit Temperatur Niederschläge Wind Luftdruck Luftfeuchtigkeit
00:00 +15°C° 0 mm 1 m/S 666 mmHg 80%
01:00 +15°C° 0 mm 1 m/S 666 mmHg 80%
02:00 +15°C° 0 mm 1 m/S 666 mmHg 81%
03:00 +14°C° 0 mm 1 m/S 666 mmHg 82%
04:00 +14°C° 0 mm 1 m/S 665 mmHg 82%
05:00 +16°C° 0 mm 1 m/S 666 mmHg 80%
06:00 +16°C° 0 mm 0 m/S 666 mmHg 78%
07:00 +17°C° 0 mm 0 m/S 667 mmHg 75%
08:00 +19°C° 0 mm 0 m/S 667 mmHg 69%
09:00 +23°C° 0 mm 1 m/S 668 mmHg 62%
10:00 +24°C° 0 mm 1 m/S 668 mmHg 55%
11:00 +24°C° 0.2 mm 1 m/S 668 mmHg 55%
12:00 +25°C° 0.2 mm 2 m/S 668 mmHg 56%
13:00 +25°C° 0.2 mm 2 m/S 667 mmHg 56%
14:00 +24°C° 0.5 mm 2 m/S 667 mmHg 58%
15:00 +24°C° 0.5 mm 1 m/S 667 mmHg 60%
16:00 +24°C° 0.5 mm 1 m/S 667 mmHg 62%
17:00 +22°C° 0.4 mm 1 m/S 666 mmHg 68%
18:00 +21°C° 0.4 mm 1 m/S 666 mmHg 74%
19:00 +19°C° 0.4 mm 1 m/S 666 mmHg 80%
20:00 +18°C° 0 mm 1 m/S 666 mmHg 81%
21:00 +16°C° 0 mm 1 m/S 666 mmHg 83%
22:00 +16°C° 0 mm 1 m/S 666 mmHg 84%
23:00 +15°C° 0 mm 1 m/S 666 mmHg 84%
Mehr zeigen